Notices

What's New in latest Release from April 7th, 2021:

- Updated Glossary, including Speed of Maximum Gust, and Total Hourly Precipitation

- Updated national and regional climate services offices contacts and prices information

- Addition of station inventory lists for 1981-2010, 1971-2000, and 1961-1990 Normals.

If you haven't already, please take our survey and provide feedback about our website: https://eccc.sondage-survey.ca/f/LanguageSelection.aspx?s=442ca660-fcf1-47c0-95a9-59707d6fd709

Hourly Data Report for November 04, 2017

VICTORIA UNIVERSITY CS
BRITISH COLUMBIA

48°27'25.200" N
123°18'16.600" W
60.10 m
1018598
71783
WYJ

Download Data

Hourly Data (November 2017)
Hourly Data Report for November 4, 2017
TIME
LST
Temp Definition
°C
Dew Point Definition
°C
Rel Hum Definition
%
Precip. Amount Definition
mm

Wind Dir Definition
10's deg

Wind Spd Definition
km/h
Visibility Definition
km
Stn Press Definition
kPa
Hmdx Definition


Wind Chill Definition


Weather Definition


00:00 -1.0 -2.5 90 0.0 31 4   101.12   -2 LegendNANA
01:00 -0.3 -2.4 86 0.0 30 5   101.08   -2 LegendNANA
02:00 0.4 -2.6 80 0.0 31 5   101.10     LegendNANA
03:00 0.6 -2.3 81 0.0 32 5   101.06     LegendNANA
04:00 -0.5 -2.4 87 0.0 32 4   101.01   -2 LegendNANA
05:00 0.3 -2.3 83 0.0 30 3   100.98     LegendNANA
06:00 1.1 -1.8 81 0.0 33 5   100.96     LegendNANA
07:00 1.4 -1.5 81 0.0 33 4   100.94     LegendNANA
08:00 1.6 -1.6 79 0.0 34 3   100.93     LegendNANA
09:00 2.0 -1.1 80 0.0 34 3   100.88     LegendNANA
10:00 2.9 -1.3 74 0.0 35 4   100.82     LegendNANA
11:00 3.0 -1.1 75 0.0 1 4   100.80     LegendNANA
12:00 2.1 0.7 91 0.0 4 6   100.76     LegendNANA
13:00 2.0 1.0 93 0.3 6 3   100.69     LegendNANA
14:00 2.5 1.5 93 0.2 8 4   100.62     LegendNANA
15:00 2.9 1.8 93 0.0 9 5   100.55     LegendNANA
16:00 3.0 2.0 93 0.0 7 7   100.49     LegendNANA
17:00 3.3 2.2 92 0.0 8 6   100.42     LegendNANA
18:00 3.4 2.0 90 0.0 8 8   100.33     LegendNANA
19:00 3.9 2.3 90 0.0 9 8   100.27     LegendNANA
20:00 4.0 1.6 85 0.0 8 7   100.21     LegendNANA
21:00 3.4 1.5 87 0.2 6 7   100.19     LegendNANA
22:00 2.7 1.4 91 0.8 4 5   100.20     LegendNANA
23:00 2.1 0.6 89 1.2 2 12   100.17     LegendNANA

Notes on Data Quality.

Legend

  • E = Estimated
  • M = Missing
  • NA = Not Available*
  • [empty] = Indicates an unobserved value
Date modified: